Voltar ao catálogo

STARLINK-4579

AtivoComunicaçõesSSO
NORAD 53677·PAYLOAD·🇺🇸 United States

Lançado Aug 31, 2022 de Vandenberg Space Force Base

Loading…

Próximas Passagens (próximas 24 horas)

TLE

AtualizadoSource: CelesTrak SupGP

Época: Sep 14, 2026, 21:39 UTC

1 53677C 22105AF  26257.90256944 -.00011611  00000+0 -36061-3 0  2576
2 53677  97.2841 134.6896 0001609  88.5608 171.9974 15.33428589    16

Acompanhe STARLINK-4579 em tempo real com AllMySat

Download on the App Store